Regional Weather Roundup
Issued by NWS

Home | Current Version | Previous Version | Graphics & Text | Print | Product List | Glossary On
Versions: 1 2 3 4 5 6 7 8 9 10 11 12 13 14 15 16 17 18 19 20 21 22 23 24 25 26 27 28 29 30 31 32 33 34 35 36 37 38 39 40 41 42 43 44 45 46 47 48 49 50
000
ASUS43 KTOP 230459
RWRKS

WEATHER ROUNDUP FOR KANSAS
NATIONAL WEATHER SERVICE GOODLAND KS
1100 PM CST SAT NOV 22 2014

NOTE:  "FAIR" INDICATES FEW OR NO CLOUDS BELOW 12,000 FEET WITH NO
SIGNIFICANT WEATHER AND/OR OBSTRUCTIONS TO VISIBILITY.

KSZ001>006-013>018-027>032-041>047-230600-
NORTHWEST KANSAS

CITY           SKY/WX    TMP DP  RH WIND       PRES   REMARKS
GOODLAND       CLOUDY    47  26  44 SW7       29.50S
HAYS           CLOUDY    55  46  71 S24G33    29.53F
HILL CITY      MOCLDY    54  49  83 S13G22    29.52F
RUSSELL        CLOUDY    56  51  84 S22G32    29.54F
$$

KSZ061>065-074>080-084>089-230600-
SOUTHWEST KANSAS

CITY           SKY/WX    TMP DP  RH WIND       PRES   REMARKS
DODGE CITY     CLOUDY    53  49  86 S20       29.56F
ELKHART          N/A    N/A N/A N/A MISG        N/A
GARDEN CITY    CLOUDY    49  47  93 S18G28    29.53F
GREAT BEND     CLOUDY    55  48  76 S22G30    29.57F
LIBERAL        CLEAR     48  43  81 S16       29.58F
$$

KSZ066>073-081>083-090>101-230600-
SOUTHEAST KANSAS

CITY           SKY/WX    TMP DP  RH WIND       PRES   REMARKS
CHANUTE        CLOUDY    53  51  93 SE10      29.70F
COFFEYVILLE    MOCLDY    54  51  90 S7        29.70F
HUTCHINSON     CLOUDY    54  50  86 S20G25    29.64S
MEDICINE LODGE   N/A     51  51 100 S8        29.63F
NEWTON         CLOUDY    54  46  76 S22       29.65F
PARSONS        MOCLDY    54  52  93 CALM      29.71F
WICHITA INTL   CLOUDY    54  51  90 S21G28    29.64F
WICHITA JABRA  CLOUDY    54  51  90 S18G28    29.64F
WICHITA MCCONL CLOUDY    54  54 100 S21       29.65F
WINFIELD       CLOUDY    55  53  93 S17       29.66F
$$

KSZ007>012-019>026-033>040-048>060-102>105-230600-
NORTHEAST KANSAS

CITY           SKY/WX    TMP DP  RH WIND       PRES   REMARKS
CONCORDIA      CLOUDY    56  53  90 S18G30    29.56F
EMPORIA        CLOUDY    54  52  93 S13G21    29.66F
LAWRENCE       CLOUDY    56  51  84 S9        29.69F
MANHATTAN      MOCLDY    55  51  86 S15G23    29.63F
OLATHE IND     CLOUDY    54  51  90 S13G21    29.70F
OLATHE EXE     CLOUDY    54  51  90 S10       29.70F
SALINA         CLOUDY    56  51  84 S22G31    29.61S
TOPEKA BILLARD CLOUDY    57  52  83 S9        29.68F
TOPEKA FORBES  CLOUDY    56  51  84 S16       29.67F
$$


USA.gov is the U.S. government's official web portal to all federal, state and local government web resources and services.